Location: Appleton
(44.2618°N, 88.4157°W)
Time: 10:02:04
(UTC+00:00)

S-56A Canister/Altair - Pass Details

Date: 01 March 2021
Orbit: 632 x 2500 km, 38.9° (Epoch: 12 April)

Event Time Altitude Azimuth Distance (km) Brightness Sun altitude
Rises 20:41:37 0° 239° (WSW) 5,769 13.2 27.7°
Reaches altitude 10° 20:45:13 10° 236° (SW) 4,918 13.3 27.2°
Maximum altitude 20:59:30 61° 161° (SSE) 2,737 10.9 25.3°
Drops below altitude 10° 21:13:26 10° 86° (E) 4,808 11.2 23.4°
Sets 21:16:54 0° 83° (E) 5,639 11.5 22.9°
